Location: Falniów
(50.3639°N, 19.9642°E)
Time: 12:47:24
(UTC+00:00)

Cosmos 2082 Rocket - Pass Details

Date: 25 April 2026
Orbit: 831 x 853 km, 71.0° (Epoch: 19 May)

Event Time Altitude Azimuth Distance (km) Brightness Sun altitude
Exits shadow 00:15:14 34° 262° (W) 1,380 3.0 -23.0°
Maximum altitude 00:17:08 45° 308° (NW) 1,146 2.9 -22.9°
Drops below altitude 10° 00:22:38 10° 21° (NNE) 2,494 5.8 -22.5°
Sets 00:25:13 0° 28° (NNE) 3,432 6.9 -22.3°
